Temp_Advection
nan nan nan nan nan nan nan nan nan nan nan nan nan nan nan nan nan nan nan nan nan nan nan nan nan nan nan nan nan nan nan nan nan nan nan nan nan nan nan nan nan nan nan
nan 1 -0 -0 -0 -1 -0 -0 -0 -0 0 0 0 0 0 0 0 -0 -0 0 0 1 1 1 1 1 0 0 0 0 0 0 0 1 1 0 0 -0 -0 0 0 0 nan
nan -0 -1 -0 -0 -0 -0 -0 -1 0 0 0 0 0 0 0 0 0 1 0 0 1 1 1 1 0 0 0 0 0 0 0 0 0 1 0 -0 -0 0 0 -0 0 nan
nan -0 -0 -0 -0 0 -0 -1 0 1 1 0 0 0 0 0 -0 1 1 1 1 1 1 1 0 0 0 0 0 0 0 0 0 1 0 0 0 0 0 -0 0 0 nan
nan -0 -0 0 0 0 0 1 1 -0 1 2 1 0 0 0 0 0 0 -0 0 1 1 0 1 1 0 0 0 0 0 0 0 0 1 1 0 0 0 0 0 0 nan
nan 0 0 0 1 1 0 0 -0 0 -0 -0 0 1 0 0 0 0 0 -0 -0 -0 0 0 -0 0 0 0 0 0 0 0 0 0 0 0 0 0 0 -0 -0 0 nan
nan 0 0 0 -0 -0 0 0 -0 -0 0 -0 -0 -1 0 0 0 -0 -0 -0 -0 -0 -0 -0 -0 -0 -0 -0 -0 -0 -0 -0 0 0 0 -0 -0 0 -0 0 0 -0 nan
nan 0 -0 -0 -0 -0 -0 -0 -0 -0 -1 -1 -0 0 0 -0 0 -0 -0 -0 -0 -0 -0 -0 -0 -0 0 0 -0 0 0 -0 -0 0 -0 -0 0 -0 0 0 -0 -0 nan
nan 0 0 0 0 -0 -0 -0 -0 -0 -1 0 0 0 -0 -0 -0 -1 -0 -0 -0 -0 -0 -0 -0 -0 0 0 -0 0 0 0 -0 -0 -0 -0 -0 0 0 0 0 0 nan
nan 0 0 0 -0 -0 -0 -0 -0 -0 0 0 -0 -0 -1 -0 -1 -1 -0 -0 -0 -0 -0 -0 -0 -0 -0 -0 -0 -0 -0 0 0 0 -0 -0 0 0 0 0 0 0 nan
nan 0 0 0 0 -0 -0 0 -0 -0 -0 -1 -1 -1 -1 -1 -1 -1 -1 -1 -1 -0 -0 -1 -1 -1 -0 -0 -0 -0 -0 -0 -0 -0 -0 -0 0 0 0 0 0 0 nan
nan 0 0 0 0 0 -0 -0 -0 -0 -0 -0 -0 -0 -0 -0 -0 -0 -0 -0 -0 -1 -1 -1 -1 -1 -1 -1 -1 -0 -0 -0 -0 -0 -1 -0 0 0 -0 -1 -0 -0 nan
nan -0 0 0 0 -0 -0 -0 -0 -0 -0 -0 -0 -0 -0 -0 -1 -1 -1 -1 -1 -1 -0 -0 -0 -0 -1 -1 -1 -1 -1 -1 -1 -1 -1 -1 -1 -1 -1 -1 -0 0 nan
nan 0 0 0 0 0 -0 -0 -0 -0 -0 -0 -0 -0 -0 -1 -1 -1 -1 -1 -1 -1 -1 -0 -0 -0 -0 -1 -1 -1 -1 -0 -0 -0 -0 -1 -1 -1 -1 -1 -1 -1 nan
nan 0 1 0 0 0 -0 0 -0 -0 -0 -0 -0 -0 -1 -1 -0 -0 -0 -0 -0 -1 -1 -1 -1 -1 -1 -1 -1 -1 -1 -1 -1 -0 -0 -0 -0 -0 -0 -1 -1 -1 nan
nan 0 0 -0 -0 0 -0 -0 -0 -0 -0 -0 -0 -1 -1 -1 -1 -1 -1 -1 -1 -0 -0 -1 -1 -1 -1 -1 -0 -1 -1 -1 -1 -1 -1 -1 -1 -0 -0 -0 -0 0 nan
nan 0 -0 -0 0 0 0 -0 -0 -0 -0 -0 -0 -0 -0 -0 -0 -0 -0 -0 -1 -1 -0 -0 -0 -0 -0 -1 -1 -1 -1 -1 -0 -1 -1 -0 -0 -0 -1 -1 -1 -0 nan
nan 0 0 0 0 0 -0 -0 -0 -0 -0 -0 -0 -0 -0 -0 -0 -0 -0 -0 -0 -0 -0 -0 -0 -0 0 -0 -1 -1 -1 -1 -1 -0 -0 -1 -1 0 0 -0 -1 -1 nan
nan 0 0 0 0 0 -0 -0 -0 -0 -0 -0 -0 -0 -1 -1 -0 -0 -0 -1 -1 -1 -0 -0 -0 -1 -0 1 1 1 -1 -1 -2 -2 -1 -1 -1 -0 -0 -0 -0 -0 nan
nan 0 0 0 -0 -0 -0 -0 -0 -0 -0 -0 -0 -0 -0 -1 -1 -1 -1 -1 -1 -1 -1 -0 -0 -1 -1 -0 0 1 0 0 0 -1 -1 -1 -1 -1 -1 -1 -0 -0 nan
nan 0 0 0 -0 -0 -0 -0 -0 -0 -0 -0 -0 -0 -0 -1 -1 -0 -0 -1 -1 -1 -1 -1 -0 -0 -1 -1 1 0 -1 -1 -0 -0 0 -0 -1 -1 -0 -0 -0 -0 nan
nan 0 0 -0 -0 -0 -0 -0 -0 -0 -0 -0 -0 -0 -0 -0 -1 -1 -0 -0 -1 -1 -1 -1 -1 -0 -0 -1 0 0 -0 -0 -0 -0 -1 -0 -0 -1 -1 -0 -0 -0 nan
nan -0 -0 -0 -0 -0 -0 -0 -0 -0 -0 -0 -0 -0 -0 -0 -0 -1 -1 -1 -0 -1 -1 -1 -1 -1 -0 -0 -0 -0 -0 -0 -1 -0 -0 -1 -0 -1 -1 -0 0 -0 nan
nan -0 -0 0 0 -0 -0 -0 -0 -0 -0 -0 -0 -0 -0 -0 0 -0 -0 -1 -1 -1 -1 -1 -1 -1 -1 -1 -1 -0 -0 -0 -0 -1 -0 -0 -1 -1 -1 -1 -0 1 nan
nan -0 -0 -0 -0 0 0 -0 -0 -0 -0 -0 -0 -0 -0 -0 -0 -0 0 -0 0 0 -1 -1 -1 -0 -0 -0 -0 -0 -0 -0 -0 -1 -1 -1 -0 -1 -1 -1 -1 -0 nan
nan nan nan nan nan nan nan nan nan nan nan nan nan nan nan nan nan nan nan nan nan nan nan nan nan nan nan nan nan nan nan nan nan nan nan nan nan nan nan nan nan nan nan
Wind_Speed
24 25 29 29 31 21 15 11 6 6 8 8 13 19 21 19 18 18 25 34 33 31 28 27 27 25 24 23 24 26 29 30 28 25 25 24 25 23 20 20 21 21 19
21 24 29 30 32 32 27 9 4 6 8 11 9 12 10 13 13 20 26 29 39 35 36 31 29 26 24 22 23 26 27 29 31 30 29 24 28 28 26 25 24 24 24
18 21 24 28 31 31 30 28 7 3 8 8 5 10 8 9 9 11 17 11 30 25 34 31 25 21 20 20 23 24 24 29 32 30 23 14 14 27 31 30 29 25 26
15 15 19 24 29 32 29 29 25 19 12 16 15 17 17 19 24 25 22 20 22 18 19 23 20 19 17 19 20 16 15 22 28 29 35 26 13 18 16 30 30 28 25
13 16 19 21 24 24 29 28 28 31 31 26 28 30 28 25 23 21 20 20 20 20 12 10 11 12 11 12 13 14 15 14 17 18 30 32 19 20 14 13 17 23 23
10 13 16 18 22 23 22 23 29 32 24 23 28 24 19 17 14 13 9 10 12 15 13 9 8 5 2 6 5 7 10 12 16 16 13 18 23 18 17 20 23 21 19
8 11 14 17 18 22 24 26 21 25 29 27 21 22 22 19 20 18 15 9 4 4 6 6 8 8 6 4 5 6 8 10 14 15 14 16 15 16 16 17 21 24 27
7 9 11 14 16 18 20 21 22 25 21 18 21 22 17 21 18 13 9 8 8 4 2 2 5 7 12 13 15 18 14 12 9 13 15 16 17 18 20 21 21 23 26
5 6 8 10 12 13 15 17 18 19 20 21 19 21 19 20 19 18 13 14 9 6 6 7 7 9 9 10 12 12 16 17 18 18 14 18 20 21 21 22 22 21 19
5 4 6 7 9 10 12 13 15 17 18 18 19 19 18 18 15 13 12 12 11 10 9 8 7 7 8 10 12 17 22 24 23 24 26 26 25 22 22 21 21 21 26
7 4 4 5 6 7 8 10 11 13 15 16 17 17 16 16 15 16 16 14 13 12 11 11 11 10 11 11 11 12 13 16 18 18 19 23 28 29 29 29 29 28 30
11 7 4 4 4 4 5 7 9 10 12 13 13 14 14 15 15 15 14 13 14 14 14 14 13 12 12 13 14 14 16 17 17 18 19 20 22 23 24 26 28 29 32
18 12 8 4 2 2 4 7 9 11 11 12 13 14 14 15 15 15 16 17 17 18 17 16 15 15 16 16 16 16 16 17 19 19 20 20 22 23 24 26 27 29 27
21 15 11 7 4 0 3 6 8 10 12 14 15 15 16 16 17 17 16 16 17 17 18 18 19 19 19 19 18 18 18 19 19 19 20 21 22 23 23 25 26 27 30
21 17 12 8 5 2 3 5 7 9 10 11 12 12 12 13 13 13 14 15 14 14 15 16 17 19 21 22 22 22 22 21 20 20 20 21 22 23 23 25 25 26 28
22 19 14 10 7 4 4 6 9 11 13 14 16 17 18 20 20 20 20 19 19 19 18 16 15 14 15 17 19 22 23 25 26 26 25 23 22 21 22 23 24 25 25
24 17 15 11 8 6 6 7 8 10 12 14 15 16 17 18 19 20 22 23 24 24 23 22 20 18 16 15 16 19 21 22 22 23 24 25 25 25 24 24 24 25 25
20 16 12 9 7 5 6 8 10 12 13 14 16 17 18 19 20 21 21 22 22 23 25 27 28 28 27 24 21 18 18 19 20 23 23 24 26 25 24 23 24 24 24
15 12 9 6 4 5 7 9 10 12 14 16 18 18 19 19 19 20 20 21 23 24 25 25 26 26 26 27 26 21 20 20 22 22 21 22 23 22 19 23 27 28 31
11 9 5 3 5 7 9 11 13 13 15 17 19 20 20 21 21 22 23 24 25 25 26 26 26 26 26 26 25 23 25 28 24 23 19 20 19 20 21 24 27 31 33
7 5 3 5 7 10 11 13 14 15 17 20 21 21 21 22 23 24 24 25 26 26 27 27 27 26 25 25 24 19 22 24 27 28 27 25 23 23 23 24 29 33 34
8 6 5 6 9 11 13 14 15 17 19 22 23 23 23 24 25 26 27 27 27 28 28 28 28 25 24 23 22 19 22 21 24 27 30 30 27 28 29 29 29 31 32
3 4 6 9 10 12 15 17 18 20 22 23 24 25 25 25 26 26 27 27 26 26 27 27 27 26 24 22 21 23 24 21 23 26 28 28 27 27 29 35 33 29 29
3 6 9 11 12 14 16 18 19 21 24 26 26 26 27 27 26 25 24 25 24 25 26 25 26 27 27 25 26 27 28 27 28 30 28 27 28 30 37 36 30 28 26
6 9 12 15 16 17 19 19 21 23 25 26 26 26 27 27 26 24 24 24 24 23 24 26 26 28 28 24 25 26 27 29 29 29 30 30 30 35 34 30 28 28 29
10 12 14 16 18 20 21 21 22 24 26 27 27 26 26 25 25 25 26 21 22 21 19 21 22 24 24 24 24 26 28 28 26 27 29 32 33 28 27 28 30 30 30
Wind_Direction
22 27 31 30 29 12 343 333 293 238 204 215 242 236 236 252 256 253 242 231 231 215 218 212 211 217 224 234 235 227 225 213 215 224 227 232 234 239 237 241 239 245 248
25 24 30 32 31 26 24 341 354 237 217 223 240 239 241 245 240 255 239 240 236 216 210 209 211 215 218 223 224 225 225 219 218 214 221 224 229 229 235 235 240 248 251
30 25 30 37 36 33 36 26 357 89 150 171 190 207 216 225 237 227 221 224 228 211 199 197 200 202 211 220 229 236 235 232 221 220 219 219 219 228 232 235 236 241 243
35 33 32 35 41 40 41 42 49 71 136 162 145 146 135 123 105 99 114 139 168 172 158 170 178 183 199 216 225 233 243 234 233 223 223 216 211 214 229 234 236 241 242
38 40 39 37 42 43 42 43 42 62 61 116 113 114 111 112 105 97 95 90 98 112 151 161 177 196 206 184 209 230 233 228 232 244 228 226 217 221 216 220 228 233 241
54 52 51 47 47 44 54 45 53 56 74 60 66 89 103 98 96 85 82 72 65 66 92 107 91 101 126 175 189 213 234 245 251 242 240 249 248 254 250 250 248 246 246
62 52 55 51 45 44 45 55 50 51 51 53 52 45 61 70 72 68 65 50 17 316 336 344 302 317 309 330 315 294 267 258 258 268 265 267 266 265 261 258 261 261 265
80 63 54 59 54 48 49 51 54 59 64 66 57 62 48 55 59 60 63 68 65 72 44 332 324 299 281 271 266 265 274 286 284 261 252 265 265 265 267 260 259 267 268
120 94 76 62 62 58 54 53 53 56 55 55 54 52 52 47 49 50 42 51 46 29 3 338 310 278 250 247 248 249 241 249 265 278 281 262 265 264 261 262 262 261 268
170 127 99 82 65 61 56 48 48 46 44 43 40 37 34 35 36 32 29 30 25 16 10 1 343 331 317 282 268 270 267 266 266 261 258 259 261 260 257 261 261 262 265
197 178 134 103 84 63 54 52 45 40 39 37 34 29 30 29 22 17 18 15 9 3 359 350 342 334 324 316 303 296 291 285 285 283 272 270 271 267 263 265 267 270 272
193 196 189 144 120 91 63 48 41 34 31 33 28 25 22 16 10 9 7 1 356 353 351 348 343 335 325 317 310 306 300 297 294 292 289 284 284 282 276 268 267 259 259
188 191 193 204 185 84 56 41 32 27 24 17 12 11 7 4 3 359 355 352 351 351 351 347 342 337 333 327 322 313 307 305 303 303 300 296 292 290 287 281 276 272 266
188 186 186 200 207 168 25 20 15 13 10 8 5 1 358 357 354 352 351 349 345 342 338 335 333 332 330 327 320 314 310 307 308 305 301 300 298 295 292 290 288 285 280
188 184 185 195 214 265 326 349 351 351 349 344 343 345 345 344 342 340 340 341 339 336 333 328 322 320 320 320 320 317 314 312 307 303 301 300 297 295 295 295 292 290 288
192 179 191 206 214 235 289 321 328 334 339 342 345 347 347 346 345 343 341 339 337 338 334 331 328 317 307 304 304 306 306 307 309 309 306 303 296 293 288 284 284 285 289
190 198 188 196 216 247 276 300 318 328 334 336 335 332 330 331 332 334 334 335 334 332 331 329 327 325 321 313 304 301 302 301 300 299 298 299 302 302 298 291 285 282 280
189 186 190 202 223 263 300 316 323 326 327 323 321 322 324 325 325 324 323 322 321 321 322 324 326 327 328 327 322 316 303 298 293 293 297 299 296 298 300 305 305 300 296
186 189 195 209 245 287 306 315 316 320 318 315 315 317 316 316 316 316 315 316 316 316 316 316 316 316 316 318 321 321 316 313 307 305 300 299 299 302 306 299 294 293 292
180 185 195 235 287 302 307 311 312 311 307 307 310 316 317 317 316 316 316 317 314 313 312 311 312 313 312 311 310 312 309 311 311 312 309 308 300 297 297 295 296 298 299
172 180 218 273 294 299 303 306 307 308 309 310 313 316 316 314 314 313 313 312 311 310 310 309 309 310 310 308 309 311 313 310 311 307 306 307 305 301 299 297 294 292 296
198 239 278 300 297 299 303 305 308 308 309 309 312 313 315 315 313 312 311 310 310 309 309 309 309 311 310 310 308 311 312 308 300 302 304 305 310 307 301 300 298 295 294
250 307 305 294 298 304 306 308 311 310 308 309 311 312 311 311 310 309 309 309 309 308 308 310 310 311 313 315 314 317 319 309 302 300 300 298 298 304 299 301 305 301 291
287 290 289 294 303 308 308 309 312 310 308 309 310 311 310 310 311 309 308 307 309 309 309 312 314 316 320 322 316 320 321 315 306 308 308 307 301 292 298 299 300 304 306
287 291 299 305 313 312 311 314 313 308 307 308 309 310 309 309 310 310 311 312 312 310 311 309 308 307 308 306 306 305 307 307 306 304 304 300 291 298 299 302 305 306 309
300 305 307 311 312 310 311 316 310 309 310 310 311 311 311 313 314 314 312 309 311 306 298 295 294 297 297 299 299 300 304 306 304 300 292 293 295 296 300 305 308 309 311
Height
1533 1527 1521 1515 1508 1503 1497 1492 1489 1488 1488 1491 1494 1495 1496 1499 1499 1501 1504 1507 1508 1513 1515 1519 1523 1527 1531 1534 1537 1540 1544 1546 1549 1552 1555 1557 1559 1561 1563 1566 1568 1570 1572
1533 1529 1523 1516 1509 1504 1497 1492 1489 1488 1489 1490 1492 1493 1494 1496 1497 1497 1498 1501 1503 1505 1508 1514 1517 1521 1526 1529 1533 1536 1539 1541 1544 1546 1550 1551 1554 1555 1558 1560 1563 1565 1567
1534 1531 1526 1520 1513 1506 1499 1494 1489 1487 1485 1487 1489 1490 1491 1494 1496 1496 1495 1497 1494 1493 1499 1506 1511 1516 1521 1525 1529 1532 1534 1535 1538 1541 1545 1546 1545 1549 1550 1552 1554 1557 1560
1536 1533 1529 1523 1516 1511 1506 1500 1494 1487 1485 1487 1487 1488 1490 1495 1496 1495 1494 1496 1495 1496 1491 1501 1507 1511 1514 1521 1524 1526 1529 1532 1533 1534 1537 1538 1539 1541 1543 1544 1547 1550 1553
1537 1533 1529 1526 1521 1515 1510 1505 1500 1495 1491 1490 1489 1490 1493 1496 1496 1495 1494 1497 1497 1494 1499 1502 1506 1508 1514 1515 1519 1521 1526 1527 1529 1530 1531 1532 1534 1535 1537 1538 1541 1544 1546
1536 1534 1531 1528 1524 1520 1515 1511 1506 1502 1500 1498 1493 1495 1497 1497 1495 1495 1495 1498 1497 1499 1502 1506 1507 1510 1512 1512 1516 1518 1521 1522 1524 1527 1526 1528 1530 1530 1531 1533 1535 1539 1540
1535 1534 1531 1528 1525 1522 1517 1513 1511 1508 1506 1505 1505 1502 1498 1498 1495 1496 1496 1498 1499 1501 1504 1502 1508 1508 1512 1512 1515 1517 1518 1518 1520 1521 1521 1524 1524 1526 1527 1528 1531 1532 1532
1535 1534 1532 1530 1528 1525 1522 1520 1517 1513 1513 1514 1513 1508 1503 1501 1499 1501 1504 1504 1503 1506 1508 1508 1506 1507 1510 1512 1514 1516 1517 1517 1515 1519 1520 1520 1523 1523 1524 1525 1524 1523 1523
1534 1533 1533 1531 1530 1528 1526 1525 1522 1520 1519 1517 1515 1512 1509 1507 1506 1506 1512 1507 1508 1507 1506 1504 1505 1507 1509 1511 1512 1512 1513 1514 1513 1513 1511 1516 1516 1515 1516 1519 1517 1517 1516
1534 1533 1532 1531 1530 1530 1529 1527 1526 1523 1520 1518 1514 1511 1511 1510 1510 1511 1511 1508 1507 1507 1506 1506 1507 1506 1507 1506 1505 1507 1508 1508 1509 1509 1510 1511 1511 1510 1512 1511 1511 1508 1509
1535 1535 1533 1531 1530 1530 1530 1528 1527 1525 1523 1520 1519 1517 1517 1516 1514 1511 1509 1508 1509 1508 1506 1506 1506 1504 1505 1504 1504 1504 1504 1503 1503 1502 1502 1501 1501 1502 1503 1503 1504 1502 1502
1531 1534 1535 1533 1532 1530 1530 1529 1528 1526 1525 1524 1523 1521 1519 1517 1515 1513 1513 1512 1509 1507 1505 1505 1505 1504 1503 1503 1501 1499 1500 1501 1499 1498 1497 1495 1495 1495 1494 1494 1494 1493 1493
1523 1528 1531 1533 1532 1531 1531 1529 1528 1526 1525 1524 1522 1521 1519 1517 1516 1515 1513 1511 1509 1506 1504 1504 1503 1501 1499 1498 1497 1496 1495 1495 1494 1492 1492 1491 1489 1489 1488 1488 1487 1486 1483
1518 1522 1526 1529 1531 1530 1530 1529 1528 1526 1525 1523 1521 1520 1518 1517 1515 1514 1512 1509 1507 1504 1502 1500 1499 1497 1495 1494 1494 1493 1492 1491 1488 1487 1487 1486 1483 1482 1481 1481 1478 1477 1476
1517 1520 1523 1526 1528 1528 1528 1527 1526 1525 1524 1523 1521 1519 1518 1517 1515 1513 1510 1508 1506 1504 1500 1498 1498 1496 1493 1492 1489 1488 1486 1484 1483 1482 1481 1479 1478 1477 1474 1472 1471 1470 1468
1513 1513 1518 1523 1524 1524 1524 1524 1523 1522 1521 1519 1517 1515 1513 1511 1508 1506 1505 1503 1501 1498 1498 1496 1495 1495 1493 1490 1488 1484 1481 1480 1476 1475 1474 1473 1473 1471 1468 1467 1465 1464 1461
1509 1511 1513 1517 1520 1521 1521 1521 1520 1520 1518 1517 1515 1514 1513 1511 1508 1505 1502 1499 1497 1496 1494 1494 1493 1491 1488 1485 1483 1480 1477 1475 1473 1472 1470 1466 1465 1463 1460 1458 1457 1455 1454
1509 1511 1513 1515 1517 1518 1518 1517 1517 1517 1515 1514 1513 1512 1510 1507 1505 1503 1501 1499 1497 1494 1491 1488 1484 1481 1478 1476 1475 1473 1471 1470 1469 1466 1462 1459 1458 1455 1452 1451 1449 1448 1447
1507 1510 1512 1513 1514 1515 1515 1515 1515 1513 1512 1511 1510 1509 1507 1505 1503 1501 1499 1496 1493 1490 1487 1484 1481 1478 1476 1472 1468 1466 1464 1461 1459 1458 1456 1454 1451 1449 1448 1448 1446 1441 1439
1507 1509 1511 1512 1513 1513 1513 1512 1512 1510 1509 1508 1506 1504 1502 1500 1498 1496 1492 1489 1487 1485 1482 1479 1475 1472 1469 1466 1464 1462 1458 1454 1452 1451 1448 1447 1446 1445 1445 1442 1439 1434 1430
1507 1508 1509 1509 1509 1509 1509 1509 1508 1506 1505 1503 1501 1499 1498 1495 1493 1490 1487 1484 1481 1477 1475 1471 1468 1466 1463 1460 1457 1456 1454 1450 1446 1443 1440 1439 1438 1438 1437 1435 1431 1426 1425
1505 1506 1506 1507 1507 1506 1506 1504 1503 1502 1500 1499 1497 1495 1492 1489 1486 1483 1481 1477 1474 1470 1467 1464 1461 1459 1456 1454 1452 1450 1449 1446 1442 1438 1434 1432 1430 1429 1427 1424 1421 1419 1415
1504 1505 1505 1505 1505 1503 1502 1501 1499 1497 1495 1493 1491 1488 1486 1483 1480 1477 1473 1470 1468 1464 1461 1458 1454 1452 1450 1447 1445 1443 1441 1439 1436 1433 1430 1427 1424 1421 1417 1415 1411 1409 1405
1503 1503 1503 1502 1502 1500 1498 1497 1495 1492 1489 1487 1485 1482 1479 1476 1473 1470 1467 1464 1461 1458 1455 1452 1449 1446 1443 1441 1439 1437 1435 1432 1429 1425 1421 1418 1416 1413 1410 1406 1404 1400 1396
1502 1501 1501 1500 1499 1496 1494 1492 1490 1487 1484 1481 1479 1476 1472 1469 1466 1464 1461 1458 1455 1452 1450 1448 1445 1442 1439 1438 1436 1434 1430 1426 1423 1419 1414 1411 1407 1404 1401 1397 1394 1391 1387
1501 1500 1498 1496 1495 1492 1489 1487 1484 1481 1478 1475 1472 1469 1466 1463 1460 1457 1453 1454 1450 1447 1446 1444 1442 1438 1435 1433 1430 1427 1423 1420 1416 1412 1406 1404 1401 1397 1393 1389 1385 1382 1379